This demonstration page uses our WeatherBlox Daily Observations layout. Learn more.

Left ArrowRight Arrow

39.01783, -85.05884

Hourly Observations for November 18, 2018

Temp ( °F °C ) Dew Point ( °F °C ) Humidity (%) Winds ( mph kmh ) Pressure ( in mb ) Visibility ( mi km ) Precip ( " mm )
12:52 am 00:52 Mostly Cloudy with Mist and Fog 37 2.8 33 0.6 86 86 E 6 9 30.22 1023 6 10 0.00 0.00
1:52 am 01:52 Cloudy with Mist and Fog 37 2.8 34 1.1 89 89 ENE 7 11 30.22 1023 6 10 0.00 0.00
2:52 am 02:52 Cloudy with Mist and Fog 38 3.3 34 1.1 86 86 E 7 11 30.22 1023 6 10 0.00 0.00
3:52 am 03:52 Cloudy with Mist and Fog 38 3.3 35 1.7 89 89 E 8 13 30.20 1023 6 10 0.00 0.00
4:52 am 04:52 Cloudy with Mist and Fog 37 2.8 34 1.1 89 89 ESE 6 9 30.18 1022 6 10 0.00 0.00
5:52 am 05:52 Mostly Cloudy with Mist and Fog 36 2.2 33 0.6 89 89 ESE 5 7 30.18 1022 6 10 0.00 0.00
6:52 am 06:52 Partly Cloudy with Mist and Fog 36 2.2 33 0.6 89 89 ESE 7 11 30.17 1022 6 10 0.00 0.00
7:52 am 07:52 Partly Cloudy with Mist and Fog 35 1.7 33 0.6 93 93 SE 7 11 30.18 1022 5 8 0.00 0.00
8:52 am 08:52 Partly Cloudy with Mist and Fog 39 3.9 36 2.2 89 89 SSE 6 9 30.18 1022 6 10 0.00 0.00
9:52 am 09:52 Partly Cloudy 44 6.7 38 3.3 79 79 SSW 7 11 30.17 1022 9 14 0.00 0.00
10:52 am 10:52 Partly Cloudy 48 8.9 40 4.4 74 74 Calm 30.17 1022 10 16 0.00 0.00
11:52 am 11:52 Partly Cloudy 50 10 41 5 71 71 SW 8 13 30.16 1021 10 16 0.00 0.00
12:52 pm 12:52 Mostly Sunny 53 11.7 42 5.6 66 66 WSW 10 17 30.14 1021 10 16 0.00 0.00
1:52 pm 13:52 Partly Cloudy 55 12.8 43 6.1 64 64 W 9 15 30.12 1020 10 16 0.00 0.00
2:27 pm 14:27 Cloudy 54 12.2 43 6.1 67 67 WNW 9 15 30.12 1020 10 16 0.00 0.00
2:52 pm 14:52 Cloudy 53 11.7 43 6.1 69 69 WNW 3 6 30.11 1020 10 16 0.00 0.00
3:52 pm 15:52 Cloudy 52 11.1 41 5 66 66 NNW 9 15 30.11 1020 9 14 0.00 0.00
4:52 pm 16:52 Cloudy 50 10 41 5 71 71 NNW 7 11 30.11 1020 8 13 0.00 0.00
5:16 pm 17:16 Cloudy 49 9.4 40 4.4 71 71 NNW 6 9 30.15 1021 8 13 0.00 0.00
5:52 pm 17:52 Cloudy 48 8.9 40 4.4 74 74 NNW 8 13 30.12 1020 9 14 0.00 0.00
6:52 pm 18:52 Cloudy 47 8.3 39 3.9 74 74 NNW 6 9 30.14 1021 8 13 0.00 0.00
7:52 pm 19:52 Cloudy 46 7.8 39 3.9 77 77 NNW 9 15 30.15 1021 7 11 0.00 0.00
8:52 pm 20:52 Cloudy with Haze 44 6.7 38 3.3 79 79 NNW 12 19 30.16 1021 5 8 0.00 0.00
9:52 pm 21:52 Cloudy with Haze 43 6.1 38 3.3 82 82 N 6 9 30.15 1021 5 8 0.00 0.00
10:52 pm 22:52 Cloudy with Haze 43 6.1 38 3.3 82 82 N 6 9 30.15 1021 5 8 0.00 0.00
11:52 pm 23:52 Cloudy with Haze 43 6.1 37 2.8 80 80 NE 5 7 30.13 1020 5 8 0.00 0.00

Powered by AerisWeather